COSMOS 1275 DEB

Satellite information

Favourite Embed

Satellite Type and Status

DEBRISIN ORBIT

Key statistics

Satellite COSMOS 1275 DEB at a glance.

Uptime

16211

Days in orbit

Revolutions

≈ 14.1

Per day

Orbit

LEO

Low Earth Orbit

Inclination

83.0

Latest

Satellite identification and parameters

Extended collection of information and parameters for COSMOS 1275 DEB.

Object identification

Identified? True

Debris? True

Object name: COSMOS 1275 DEB

International designator: 1981-053AX

Object number (NORAD): 12703

Object ID (CCSDS): 12703

Country: COMMONWEALTH OF INDEPENDENT STATES (CIS)

Current information (Y/N): Y

RCS size: SMALL

Orbital parameters

Period: 102.062 minutes

Inclination: 82.971 deg

SMA: 7234.404 km

Apoapsis: 865.181 km

Periapsis: 847.357 km

RAAN: 23.9616 deg

Eccentricy: 0.0012319

Argument of periapsis: 325.8295 deg

Mean anomaly: 34.2087 deg

Mean motion: 14.10907891 rev/day

Mean motion (dot): 0.00002631 rev/day2

B* drag term: 0.0014575 1/REarth

Two-line elements (TLE)

Creation date: Oct. 21, 2025, 11:56 p.m.

Reference frame: TEME

Reference center: EARTH

Epoch: Oct. 21, 2025, 5:27 p.m. UTC

TLE line 0: 0 COSMOS 1275 DEB

TLE line 1: 1 12703U 81053AX 25294.72723561 .00002631 00000-0 14575-2 0 9991

TLE line 2: 2 12703 82.9710 23.9616 0012319 325.8295 34.2087 14.10907891253474

Live tracking on map

Real-time ground track for satellite COSMOS 1275 DEB.

In-orbit conjunctions

A list of the most updated potential collisions computed for object COSMOS 1275 DEB.

Target Orbit TCA Probability of collision Miss distance Type
CZ-6A DEB LEO 2025-09-20 19:44:28 0.0001167449 573.0 (m) DEBRIS
YAOGAN 4 DEB SSO 2024-09-20 19:18:11 0.0001400897 163.0 (m) DEBRIS
FENGYUN 1C DEB SSO 2024-07-03 01:33:01 0.0001701043 395.0 (m) DEBRIS

Associated space launch

Navigation satellite providing location information for the Tsiklon-B navigation system

COSMOS 1275 DEB was lifted into orbit during the mission ‘Kosmos-3M | Parus 27’, on board a Kosmos-3M space rocket.

The launch took place on June 4, 1981, 3:41 p.m. from 132/2.

For more information about the launch, click the button.

Launch to space Kosmos-3M | Parus 27
Kosmos-3M | Parus 27

Agency: N/A

Status: Launch Successful

Launch date: June 4, 1981, 3:41 p.m. UTC

Rocket: Kosmos-3M

Launch pad: 132/2

Location: Plesetsk Cosmodrome, Russian Federation

...

Latest news about this satellite

There are no fresh news available about this satellite. Check back as we update our databases every day.


Newsletter sign-up

Weekly statistics, charts and insights to help you stay on top of the space industry.